^^
Saratoga-Weather Station Historical Data
Daily Summary for May 23, 2020 Units:  English    Metric   Both
Daily Weekly Monthly Yearly Custom
  High: Low: Average:
Temperature: 52.5 °F 45.9 °F 50 °F
Dew Point: 50.9 °F 42.8 °F 47.5 °F
Humidity: 94% 86% 91%
Wind Speed: 21mph 0mph 5.7mph
Wind Gust: 29mph - -
Wind- - West
Pressure: 30.3 in 30.1 in -
Precipitation: 0.14 in    
Historical Graphs
 
 
Tabular Data for May 23, 2020
Time Temperature Dew Point Pressure Wind Wind Speed Wind Gust Humidity Rainfall Rate (Hourly) solar
00:04 49.8 °F 45.9 °F 30.3 in NW 2.9 mph 3 mph 86% 0 in 0 W/m2
00:10 49.8 °F 45.9 °F 30.3 in SSW 0.9 mph 11 mph 86% 0 in 0 W/m2
00:15 49.8 °F 45.9 °F 30.3 in NNW 2 mph 4 mph 86% 0 in 0 W/m2
00:20 49.8 °F 45.9 °F 30.3 in WSW 2 mph 7 mph 86% 0 in 0 W/m2
00:25 49.8 °F 45.9 °F 30.3 in WSW 2.9 mph 4 mph 86% 0 in 0 W/m2
00:30 49.8 °F 45.9 °F 30.3 in WNW 2 mph 5 mph 86% 0 in 0 W/m2
00:35 49.8 °F 45.9 °F 30.3 in WNW 4 mph 9 mph 86% 0 in 0 W/m2
00:40 49.8 °F 45.9 °F 30.3 in West 2.9 mph 7 mph 86% 0 in 0 W/m2
00:45 50 °F 46 °F 30.3 in West 4 mph 7 mph 86% 0 in 0 W/m2
00:50 50 °F 46 °F 30.3 in WNW 6.9 mph 9 mph 86% 0 in 0 W/m2
00:55 50 °F 46 °F 30.3 in ENE 2 mph 10 mph 86% 0 in 0 W/m2
01:00 50 °F 46 °F 30.3 in WNW 2 mph 6 mph 86% 0 in 0 W/m2
01:05 50 °F 46 °F 30.3 in WNW 2.9 mph 9 mph 86% 0.01 in 0 W/m2
01:10 50 °F 46 °F 30.3 in NNW 4 mph 4 mph 86% 0.01 in 0 W/m2
01:15 49.8 °F 45.9 °F 30.3 in WSW 6.9 mph 10 mph 86% 0.01 in 0 W/m2
01:20 49.8 °F 45.9 °F 30.3 in NW 2 mph 9 mph 86% 0.01 in 0 W/m2
01:25 49.8 °F 46 °F 30.3 in NW 4 mph 5 mph 87% 0.01 in 0 W/m2
01:30 49.6 °F 45.9 °F 30.3 in NW 6 mph 10 mph 87% 0.01 in 0 W/m2
01:35 49.6 °F 45.9 °F 30.3 in West 0.9 mph 4 mph 87% 0.01 in 0 W/m2
01:40 49.6 °F 45.9 °F 30.3 in NW 4 mph 10 mph 87% 0.01 in 0 W/m2
01:45 49.6 °F 46.2 °F 30.3 in WNW 4 mph 9 mph 88% 0.01 in 0 W/m2
01:50 49.5 °F 46 °F 30.3 in West 4 mph 11 mph 88% 0.01 in 0 W/m2
01:55 49.5 °F 46 °F 30.3 in NW 2.9 mph 11 mph 88% 0.02 in 0 W/m2
02:00 49.5 °F 46 °F 30.3 in WSW 2 mph 7 mph 88% 0.02 in 0 W/m2
02:05 49.5 °F 46.4 °F 30.3 in NW 4 mph 7 mph 89% 0.01 in 0 W/m2
02:10 49.5 °F 46.4 °F 30.3 in West 2 mph 12 mph 89% 0.01 in 0 W/m2
02:15 49.3 °F 46.2 °F 30.3 in West 2 mph 8 mph 89% 0.01 in 0 W/m2
02:20 49.3 °F 46.2 °F 30.3 in WNW 4.9 mph 8 mph 89% 0.01 in 0 W/m2
02:25 49.3 °F 46.2 °F 30.3 in West 2.9 mph 11 mph 89% 0.01 in 0 W/m2
02:30 49.3 °F 46.4 °F 30.3 in ENE 2.9 mph 7 mph 90% 0.02 in 0 W/m2
02:35 49.1 °F 46.2 °F 30.3 in WSW 4 mph 10 mph 90% 0.02 in 0 W/m2
02:40 48.9 °F 46 °F 30.3 in NNW 2.9 mph 6 mph 90% 0.02 in 0 W/m2
02:45 48.9 °F 46 °F 30.3 in West 0.9 mph 7 mph 90% 0.02 in 0 W/m2
02:50 48.9 °F 46 °F 30.3 in NW 6 mph 10 mph 90% 0.02 in 0 W/m2
02:55 48.9 °F 46 °F 30.3 in Calm   3 mph 90% 0.01 in 0 W/m2
03:00 48.7 °F 46.2 °F 30.3 in West 2 mph 3 mph 91% 0.01 in 0 W/m2
03:05 48.7 °F 46.2 °F 30.3 in NW 2 mph 5 mph 91% 0.01 in 0 W/m2
03:10 48.7 °F 46.2 °F 30.3 in NW 0.9 mph 5 mph 91% 0.01 in 0 W/m2
03:15 48.7 °F 46.2 °F 30.3 in ESE 6 mph 6 mph 91% 0.01 in 0 W/m2
03:20 48.6 °F 46 °F 30.3 in West 2.9 mph 3 mph 91% 0.01 in 0 W/m2
03:25 48.6 °F 46 °F 30.3 in NNE 2 mph 6 mph 91% 0.01 in 0 W/m2
03:30 48.6 °F 46 °F 30.3 in NNE 2 mph 4 mph 91% 0.01 in 0 W/m2
03:35 48.6 °F 46.4 °F 30.3 in SSW 2.9 mph 7 mph 92% 0.01 in 0 W/m2
03:40 48.6 °F 46.4 °F 30.3 in West 2.9 mph 6 mph 92% 0.01 in 0 W/m2
03:45 48.6 °F 46.4 °F 30.3 in WSW 4 mph 8 mph 92% 0.01 in 0 W/m2
03:50 48.6 °F 46.4 °F 30.3 in East 2.9 mph 3 mph 92% 0.01 in 0 W/m2
03:55 48.6 °F 46.4 °F 30.3 in NW 2 mph 8 mph 92% 0.01 in 0 W/m2
04:00 48.6 °F 46.4 °F 30.3 in WSW 0.9 mph 17 mph 92% 0.01 in 0 W/m2
04:05 48.6 °F 46.4 °F 30.2 in South 2.9 mph 4 mph 92% 0.01 in 0 W/m2
04:10 48.6 °F 46.4 °F 30.2 in WNW 2 mph 17 mph 92% 0.01 in 0 W/m2
04:15 48.6 °F 46.4 °F 30.2 in NE 4 mph 7 mph 92% 0.01 in 0 W/m2
04:20 48.6 °F 46.4 °F 30.2 in WNW 6.9 mph 11 mph 92% 0.01 in 0 W/m2
04:25 48.6 °F 46.4 °F 30.2 in WSW 2 mph 4 mph 92% 0.01 in 0 W/m2
04:30 48.6 °F 46.4 °F 30.2 in North 2.9 mph 5 mph 92% 0 in 0 W/m2
04:35 48.6 °F 46.4 °F 30.2 in NNW 2 mph 12 mph 92% 0 in 0 W/m2
04:40 48.6 °F 46.4 °F 30.2 in NW 8.9 mph 15 mph 92% 0 in 0 W/m2
04:45 48.6 °F 46.4 °F 30.2 in West 2 mph 7 mph 92% 0 in 0 W/m2
04:50 48.6 °F 46.4 °F 30.2 in WNW 0.9 mph 6 mph 92% 0 in 0 W/m2
04:55 48.6 °F 46.4 °F 30.2 in NW 2.9 mph 4 mph 92% 0 in 0 W/m2
05:01 48.6 °F 46.4 °F 30.2 in North 2.9 mph 5 mph 92% 0 in 0 W/m2
05:06 48.6 °F 46.4 °F 30.2 in NNW 2 mph 4 mph 92% 0 in 0 W/m2
05:11 48.6 °F 46.4 °F 30.2 in WNW 2.9 mph 4 mph 92% 0 in 0 W/m2
05:16 48.6 °F 46.4 °F 30.2 in NW 0.9 mph 2 mph 92% 0 in 0 W/m2
05:21 48.7 °F 46.6 °F 30.2 in North 2 mph 5 mph 92% 0 in 0 W/m2
05:26 48.7 °F 46.6 °F 30.2 in West 2 mph 5 mph 92% 0 in 0 W/m2
05:31 48.7 °F 46.6 °F 30.2 in West 6.9 mph 12 mph 92% 0 in 0 W/m2
05:36 48.7 °F 46.6 °F 30.2 in WNW 6.9 mph 11 mph 92% 0 in 0 W/m2
05:41 48.7 °F 46.6 °F 30.2 in NNW 4 mph 7 mph 92% 0 in 0 W/m2
05:46 48.7 °F 46.6 °F 30.2 in WSW 0.9 mph 11 mph 92% 0 in 0 W/m2
05:51 48.6 °F 46.4 °F 30.2 in NW 2.9 mph 3 mph 92% 0 in 0 W/m2
05:56 48.6 °F 46.4 °F 30.2 in NE 4 mph 7 mph 92% 0 in 0 W/m2
06:01 48.7 °F 46.2 °F 30.2 in Calm   13 mph 91% 0 in 0 W/m2
06:06 48.7 °F 46.2 °F 30.2 in West 2 mph 8 mph 91% 0 in 0 W/m2
06:11 48.7 °F 46.2 °F 30.2 in NW 2.9 mph 13 mph 91% 0 in 0 W/m2
06:16 48.7 °F 46.2 °F 30.2 in ENE 2 mph 4 mph 91% 0 in 0 W/m2
06:21 48.7 °F 46.2 °F 30.2 in NW 2 mph 11 mph 91% 0 in 0 W/m2
06:26 48.7 °F 46.2 °F 30.2 in WSW 2.9 mph 7 mph 91% 0 in 0 W/m2
06:31 48.7 °F 46.2 °F 30.2 in NW 6.9 mph 11 mph 91% 0 in 0 W/m2
06:36 48.7 °F 46.2 °F 30.2 in ENE 4 mph 8 mph 91% 0 in 0 W/m2
06:41 48.7 °F 46.2 °F 30.2 in WNW 2.9 mph 9 mph 91% 0 in 0 W/m2
06:46 48.7 °F 46.2 °F 30.2 in WNW 4.9 mph 5 mph 91% 0 in 0 W/m2
06:51 48.6 °F 46 °F 30.2 in WNW 8.1 mph 12 mph 91% 0.01 in 0 W/m2
06:56 48.6 °F 46 °F 30.2 in SW 2 mph 6 mph 91% 0.01 in 0 W/m2
07:01 48.6 °F 46 °F 30.2 in NNE 2.9 mph 14 mph 91% 0.01 in 0 W/m2
07:06 48.4 °F 46.2 °F 30.2 in WSW 2.9 mph 9 mph 92% 0.01 in 0 W/m2
07:11 48.4 °F 46.2 °F 30.2 in North 4.9 mph 5 mph 92% 0.01 in 0 W/m2
07:16 48.4 °F 46.2 °F 30.2 in NW 2.9 mph 15 mph 92% 0.01 in 0 W/m2
07:21 48.4 °F 46.2 °F 30.2 in ESE 2.9 mph 6 mph 92% 0.01 in 0 W/m2
07:26 48.4 °F 46.2 °F 30.2 in NNW 0.9 mph 15 mph 92% 0.01 in 0 W/m2
07:31 48.4 °F 46.2 °F 30.2 in West 6 mph 13 mph 92% 0.01 in 0 W/m2
07:36 48.4 °F 46.2 °F 30.2 in West 2.9 mph 9 mph 92% 0.01 in 0 W/m2
07:41 48.4 °F 46.2 °F 30.2 in NE 2 mph 13 mph 92% 0.01 in 0 W/m2
07:46 48.4 °F 46.2 °F 30.2 in West 8.9 mph 9 mph 92% 0.01 in 5 W/m2
07:51 48.2 °F 46 °F 30.2 in ESE 2.9 mph 8 mph 92% 0 in 5 W/m2
07:57 48.2 °F 46 °F 30.2 in NE 2.9 mph 5 mph 92% 0 in 5 W/m2
08:02 48 °F 45.9 °F 30.2 in NNW 6 mph 6 mph 92% 0 in 0 W/m2
08:07 48 °F 45.9 °F 30.2 in West 6 mph 14 mph 92% 0 in 5 W/m2
08:12 48 °F 45.9 °F 30.2 in SW 2 mph 11 mph 92% 0 in 7 W/m2
08:17 48 °F 45.9 °F 30.2 in WSW 2.9 mph 6 mph 92% 0 in 7 W/m2
08:22 48 °F 45.9 °F 30.2 in West 6.9 mph 13 mph 92% 0 in 12 W/m2
08:27 48 °F 45.9 °F 30.2 in ESE 2 mph 7 mph 92% 0 in 14 W/m2
08:32 48.2 °F 46 °F 30.2 in NNW 8.9 mph 9 mph 92% 0 in 16 W/m2
08:37 48.4 °F 46.2 °F 30.2 in NNE 2 mph 3 mph 92% 0 in 21 W/m2
08:42 48.4 °F 46.2 °F 30.2 in NW 8.9 mph 9 mph 92% 0 in 32 W/m2
08:47 48.6 °F 46.4 °F 30.1 in East 2 mph 6 mph 92% 0 in 40 W/m2
08:52 48.6 °F 46 °F 30.1 in WNW 4 mph 12 mph 91% 0 in 35 W/m2
08:57 48.7 °F 46.2 °F 30.1 in WNW 11 mph 14 mph 91% 0 in 35 W/m2
09:02 48.7 °F 46.2 °F 30.1 in SW 2.9 mph 11 mph 91% 0 in 30 W/m2
09:07 48.9 °F 46.4 °F 30.1 in NW 4.9 mph 8 mph 91% 0 in 30 W/m2
09:12 48.9 °F 46.4 °F 30.2 in NW 11 mph 15 mph 91% 0 in 30 W/m2
09:17 48.9 °F 46 °F 30.1 in WSW 2.9 mph 7 mph 90% 0 in 33 W/m2
09:22 48.9 °F 46 °F 30.1 in WNW 4.9 mph 11 mph 90% 0 in 32 W/m2
09:27 48.9 °F 46 °F 30.1 in WSW 2.9 mph 9 mph 90% 0 in 30 W/m2
09:32 49.1 °F 46.2 °F 30.1 in SW 0.9 mph 10 mph 90% 0 in 32 W/m2
09:37 49.1 °F 46.2 °F 30.1 in SW 4.9 mph 16 mph 90% 0 in 26 W/m2
09:42 49.1 °F 46.2 °F 30.1 in WNW 4.9 mph 11 mph 90% 0 in 26 W/m2
09:47 49.1 °F 46.2 °F 30.1 in NW 4.9 mph 5 mph 90% 0 in 32 W/m2
09:52 49.3 °F 46.4 °F 30.2 in WNW 15 mph 15 mph 90% 0 in 32 W/m2
09:57 49.3 °F 46.4 °F 30.2 in West 2.9 mph 10 mph 90% 0 in 33 W/m2
10:02 49.3 °F 46.4 °F 30.1 in WSW 8.1 mph 8 mph 90% 0 in 44 W/m2
10:07 49.5 °F 46.6 °F 30.1 in NW 2 mph 7 mph 90% 0 in 42 W/m2
10:12 49.3 °F 46.4 °F 30.1 in WSW 4.9 mph 22 mph 90% 0 in 56 W/m2
10:17 49.5 °F 46.6 °F 30.1 in SW 2.9 mph 13 mph 90% 0 in 42 W/m2
10:22 49.5 °F 46.6 °F 30.1 in West 15 mph 15 mph 90% 0 in 47 W/m2
10:28 49.5 °F 46.6 °F 30.1 in SW 4 mph 18 mph 90% 0 in 54 W/m2
10:33 49.5 °F 46.6 °F 30.1 in WNW 6.9 mph 12 mph 90% 0 in 44 W/m2
10:38 49.5 °F 46.6 °F 30.1 in NNE 4 mph 18 mph 90% 0 in 42 W/m2
10:43 49.5 °F 46.6 °F 30.1 in NNW 4.9 mph 17 mph 90% 0 in 35 W/m2
10:48 49.5 °F 46.6 °F 30.1 in NW 4 mph 4 mph 90% 0 in 39 W/m2
10:53 49.5 °F 46.6 °F 30.1 in WNW 6.9 mph 9 mph 90% 0 in 39 W/m2
10:58 49.5 °F 46.6 °F 30.1 in NNW 4 mph 10 mph 90% 0 in 53 W/m2
11:03 49.3 °F 46.8 °F 30.1 in NW 8.9 mph 18 mph 91% 0 in 46 W/m2
11:08 49.3 °F 46.8 °F 30.1 in WSW 4.9 mph 10 mph 91% 0 in 56 W/m2
11:13 49.3 °F 46.8 °F 30.1 in WNW 4 mph 18 mph 91% 0 in 54 W/m2
11:18 49.3 °F 46.8 °F 30.1 in WNW 8.1 mph 12 mph 91% 0 in 54 W/m2
11:23 49.5 °F 46.9 °F 30.1 in NNW 8.1 mph 17 mph 91% 0 in 60 W/m2
11:28 49.5 °F 46.9 °F 30.1 in East 4 mph 16 mph 91% 0 in 86 W/m2
11:33 49.5 °F 46.9 °F 30.1 in West 2 mph 9 mph 91% 0 in 100 W/m2
11:38 49.5 °F 46.9 °F 30.1 in WNW 6.9 mph 10 mph 91% 0 in 90 W/m2
11:43 49.5 °F 46.9 °F 30.1 in WNW 12.1 mph 12 mph 91% 0 in 60 W/m2
11:49 49.5 °F 46.9 °F 30.1 in West 2.9 mph 13 mph 91% 0 in 67 W/m2
11:54 49.5 °F 46.9 °F 30.1 in WNW 6 mph 21 mph 91% 0 in 77 W/m2
11:59 49.6 °F 47.1 °F 30.1 in SSE 2.9 mph 11 mph 91% 0 in 79 W/m2
12:04 49.6 °F 47.1 °F 30.1 in NW 16 mph 16 mph 91% 0 in 67 W/m2
12:09 49.6 °F 47.1 °F 30.1 in NW 8.1 mph 12 mph 91% 0 in 74 W/m2
12:14 49.6 °F 47.1 °F 30.1 in WNW 6 mph 16 mph 91% 0 in 58 W/m2
12:19 49.6 °F 47.1 °F 30.1 in NW 8.9 mph 12 mph 91% 0 in 67 W/m2
12:24 49.8 °F 47.3 °F 30.1 in North 2 mph 7 mph 91% 0 in 54 W/m2
12:29 49.8 °F 47.3 °F 30.1 in NNW 2.9 mph 10 mph 91% 0 in 91 W/m2
12:34 49.8 °F 47.3 °F 30.1 in North 10.1 mph 20 mph 91% 0 in 67 W/m2
12:39 49.8 °F 46.9 °F 30.1 in WNW 6.9 mph 10 mph 90% 0 in 51 W/m2
12:44 50 °F 47.1 °F 30.1 in NNW 6 mph 15 mph 90% 0 in 51 W/m2
12:49 50 °F 47.1 °F 30.1 in WNW 4.9 mph 11 mph 90% 0 in 77 W/m2
12:54 50.2 °F 47.3 °F 30.1 in SSW 6 mph 11 mph 90% 0 in 91 W/m2
12:59 50.2 °F 47.3 °F 30.1 in NW 2.9 mph 15 mph 90% 0 in 83 W/m2
13:04 50.2 °F 47.3 °F 30.1 in NW 6 mph 18 mph 90% 0 in 65 W/m2
13:10 50.4 °F 47.5 °F 30.1 in North 4.9 mph 11 mph 90% 0 in 47 W/m2
13:15 50.4 °F 47.5 °F 30.1 in WNW 8.1 mph 18 mph 90% 0 in 54 W/m2
13:20 50.4 °F 47.5 °F 30.1 in NNW 4 mph 8 mph 90% 0 in 69 W/m2
13:25 50.4 °F 47.5 °F 30.1 in NNW 8.1 mph 29 mph 90% 0 in 49 W/m2
13:30 50.4 °F 47.5 °F 30.1 in NW 8.1 mph 18 mph 90% 0 in 49 W/m2
13:35 50.4 °F 47.5 °F 30.1 in West 13 mph 28 mph 90% 0 in 54 W/m2
13:40 50.4 °F 47.5 °F 30.1 in WNW 17 mph 18 mph 90% 0 in 32 W/m2
13:45 50.5 °F 47.7 °F 30.1 in WNW 2 mph 9 mph 90% 0 in 42 W/m2
13:50 50.5 °F 47.7 °F 30.1 in WSW 8.1 mph 9 mph 90% 0 in 46 W/m2
13:55 50.5 °F 47.7 °F 30.1 in WSW 8.9 mph 19 mph 90% 0 in 98 W/m2
14:00 50.7 °F 47.8 °F 30.1 in WSW 12.1 mph 15 mph 90% 0 in 84 W/m2
14:05 50.7 °F 47.8 °F 30.1 in West 4 mph 19 mph 90% 0 in 60 W/m2
14:10 50.7 °F 47.8 °F 30.1 in West 6.9 mph 9 mph 90% 0 in 60 W/m2
14:15 50.7 °F 47.8 °F 30.1 in NW 4 mph 9 mph 90% 0 in 79 W/m2
14:20 50.7 °F 47.8 °F 30.1 in NW 10.1 mph 14 mph 90% 0 in 44 W/m2
14:25 50.7 °F 47.8 °F 30.1 in NNE 2 mph 8 mph 90% 0 in 37 W/m2
14:30 50.7 °F 47.8 °F 30.1 in WNW 6.9 mph 9 mph 90% 0 in 51 W/m2
14:35 50.7 °F 47.8 °F 30.1 in WNW 6.9 mph 15 mph 90% 0 in 54 W/m2
14:40 50.7 °F 47.8 °F 30.1 in West 8.9 mph 9 mph 90% 0 in 47 W/m2
14:45 50.7 °F 47.8 °F 30.1 in West 11 mph 19 mph 90% 0 in 53 W/m2
14:50 50.9 °F 48 °F 30.1 in West 4 mph 14 mph 90% 0 in 60 W/m2
14:55 51.1 °F 48.2 °F 30.1 in NW 13 mph 21 mph 90% 0 in 53 W/m2
15:00 51.3 °F 48.2 °F 30.1 in NW 10.1 mph 12 mph 89% 0 in 42 W/m2
15:05 51.3 °F 48.2 °F 30.1 in NW 2 mph 21 mph 89% 0 in 62 W/m2
15:10 51.3 °F 48.2 °F 30.1 in West 19 mph 19 mph 89% 0 in 63 W/m2
15:15 51.3 °F 48.2 °F 30.1 in NNW 6 mph 18 mph 89% 0 in 65 W/m2
15:20 51.3 °F 48.2 °F 30.1 in NNW 4.9 mph 15 mph 89% 0 in 58 W/m2
15:25 51.4 °F 48.4 °F 30.1 in NW 4.9 mph 22 mph 89% 0 in 58 W/m2
15:30 51.4 °F 48.4 °F 30.1 in WSW 4 mph 9 mph 89% 0 in 40 W/m2
15:35 51.4 °F 48.4 °F 30.1 in WNW 21 mph 21 mph 89% 0 in 51 W/m2
15:40 51.4 °F 48.4 °F 30.1 in WNW 6.9 mph 10 mph 89% 0 in 37 W/m2
15:45 51.4 °F 48.6 °F 30.1 in NW 8.1 mph 19 mph 90% 0 in 56 W/m2
15:50 51.3 °F 48.2 °F 30.1 in South 11 mph 11 mph 89% 0 in 44 W/m2
15:55 51.3 °F 48.4 °F 30.1 in North 8.9 mph 14 mph 90% 0 in 60 W/m2
16:00 51.3 °F 48.4 °F 30.1 in West 2.9 mph 12 mph 90% 0 in 32 W/m2
16:05 51.3 °F 48.4 °F 30.1 in West 6.9 mph 20 mph 90% 0 in 62 W/m2
16:10 51.1 °F 48.2 °F 30.1 in WNW 2.9 mph 8 mph 90% 0 in 21 W/m2
16:15 51.1 °F 48.6 °F 30.1 in West 11 mph 11 mph 91% 0 in 28 W/m2
16:20 51.1 °F 48.6 °F 30.1 in NE 2.9 mph 7 mph 91% 0 in 21 W/m2
16:25 51.1 °F 48.6 °F 30.1 in WNW 6.9 mph 9 mph 91% 0 in 23 W/m2
16:30 51.1 °F 48.6 °F 30.1 in WSW 8.9 mph 17 mph 91% 0 in 30 W/m2
16:35 51.1 °F 48.6 °F 30.1 in SW 14.1 mph 14 mph 91% 0 in 25 W/m2
16:40 51.1 °F 48.6 °F 30.1 in West 6 mph 10 mph 91% 0 in 19 W/m2
16:45 51.1 °F 48.6 °F 30.1 in WNW 2 mph 12 mph 91% 0 in 14 W/m2
16:50 50.9 °F 48.4 °F 30.1 in West 2 mph 14 mph 91% 0 in 12 W/m2
16:55 50.9 °F 48.7 °F 30.1 in West 2.9 mph 3 mph 92% 0 in 19 W/m2
17:00 50.9 °F 48.7 °F 30.1 in West 8.1 mph 11 mph 92% 0 in 12 W/m2
17:05 51.1 °F 48.9 °F 30.1 in West 10.1 mph 12 mph 92% 0 in 12 W/m2
17:10 51.1 °F 48.9 °F 30.1 in WNW 4 mph 20 mph 92% 0 in 11 W/m2
17:15 51.1 °F 48.9 °F 30.1 in SSW 2.9 mph 7 mph 92% 0 in 11 W/m2
17:21 51.1 °F 48.9 °F 30.1 in West 8.9 mph 20 mph 92% 0 in 11 W/m2
17:26 50.9 °F 48.7 °F 30.1 in West 8.1 mph 10 mph 92% 0 in 11 W/m2
17:31 51.1 °F 48.9 °F 30.1 in WNW 4 mph 16 mph 92% 0 in 7 W/m2
17:36 51.1 °F 48.9 °F 30.1 in NNW 2.9 mph 15 mph 92% 0 in 5 W/m2
17:41 51.1 °F 49.1 °F 30.1 in WSW 2.9 mph 10 mph 93% 0 in 5 W/m2
17:46 51.3 °F 49.3 °F 30.1 in North 4 mph 13 mph 93% 0 in 5 W/m2
17:51 51.3 °F 49.3 °F 30.1 in WSW 19 mph 19 mph 93% 0 in 0 W/m2
17:56 51.4 °F 49.5 °F 30.1 in NW 2.9 mph 14 mph 93% 0 in 0 W/m2
18:01 51.4 °F 49.5 °F 30.1 in West 15 mph 19 mph 93% 0 in 0 W/m2
18:06 51.4 °F 49.5 °F 30.1 in WNW 8.1 mph 12 mph 93% 0 in 0 W/m2
18:11 51.4 °F 49.5 °F 30.1 in SSW 2.9 mph 7 mph 93% 0 in 0 W/m2
18:16 51.4 °F 49.5 °F 30.1 in SW 14.1 mph 15 mph 93% 0 in 0 W/m2
18:21 51.4 °F 49.5 °F 30.1 in West 2.9 mph 9 mph 93% 0.01 in 0 W/m2
18:26 51.4 °F 49.5 °F 30.1 in North 8.1 mph 12 mph 93% 0.01 in 0 W/m2
18:31 51.4 °F 49.5 °F 30.1 in West 4 mph 8 mph 93% 0.01 in 0 W/m2
18:36 51.6 °F 49.6 °F 30.1 in West 8.1 mph 10 mph 93% 0.01 in 0 W/m2
18:41 51.6 °F 49.6 °F 30.1 in NW 2.9 mph 12 mph 93% 0.01 in 0 W/m2
18:46 51.6 °F 49.6 °F 30.1 in NNW 6 mph 8 mph 93% 0.01 in 0 W/m2
18:51 51.8 °F 49.8 °F 30.1 in West 4 mph 14 mph 93% 0.01 in 0 W/m2
18:56 51.8 °F 49.8 °F 30.1 in WNW 8.1 mph 13 mph 93% 0.01 in 0 W/m2
19:01 51.8 °F 49.8 °F 30.1 in WNW 13 mph 13 mph 93% 0.01 in 0 W/m2
19:06 51.8 °F 49.8 °F 30.1 in West 15 mph 15 mph 93% 0.01 in 0 W/m2
19:11 52 °F 50 °F 30.1 in WNW 11 mph 15 mph 93% 0.01 in 0 W/m2
19:16 52 °F 50 °F 30.1 in WNW 11 mph 23 mph 93% 0.01 in 0 W/m2
19:21 52 °F 50 °F 30.1 in NW 6.9 mph 10 mph 93% 0 in 0 W/m2
19:26 52 °F 50 °F 30.1 in West 6.9 mph 13 mph 93% 0 in 0 W/m2
19:31 52 °F 50 °F 30.1 in NW 8.1 mph 10 mph 93% 0 in 0 W/m2
19:37 52 °F 50 °F 30.1 in West 6.9 mph 12 mph 93% 0 in 0 W/m2
19:42 52 °F 50 °F 30.1 in WSW 12.1 mph 14 mph 93% 0 in 0 W/m2
19:47 52.2 °F 50.2 °F 30.1 in WSW 4.9 mph 11 mph 93% 0 in 0 W/m2
19:52 52.2 °F 50.2 °F 30.1 in West 4 mph 11 mph 93% 0 in 0 W/m2
19:57 52.2 °F 50.2 °F 30.1 in SSW 8.1 mph 10 mph 93% 0 in 0 W/m2
20:02 52.2 °F 50.5 °F 30.1 in NW 2.9 mph 7 mph 94% 0.01 in 0 W/m2
20:07 52.2 °F 50.5 °F 30.1 in SW 4.9 mph 11 mph 94% 0.01 in 0 W/m2
20:12 52.2 °F 50.5 °F 30.1 in NNW 2.9 mph 14 mph 94% 0.02 in 0 W/m2
20:17 52.2 °F 50.5 °F 30.1 in WSW 11 mph 20 mph 94% 0.02 in 0 W/m2
20:22 52.3 °F 50.7 °F 30.1 in NW 8.1 mph 8 mph 94% 0.02 in 0 W/m2
20:27 52.3 °F 50.7 °F 30.1 in WNW 8.1 mph 16 mph 94% 0.02 in 0 W/m2
20:32 52.3 °F 50.4 °F 30.1 in WNW 6.9 mph 14 mph 93% 0.02 in 0 W/m2
20:37 52.3 °F 50.4 °F 30.1 in West 2 mph 9 mph 93% 0.02 in 0 W/m2
20:42 52.3 °F 50.4 °F 30.1 in WNW 12.1 mph 13 mph 93% 0.02 in 0 W/m2
20:47 52.3 °F 50.4 °F 30.1 in West 8.1 mph 11 mph 93% 0.02 in 0 W/m2
20:52 52.5 °F 50.5 °F 30.1 in West 10.1 mph 11 mph 93% 0.02 in 0 W/m2
20:57 52.5 °F 50.5 °F 30.1 in WNW 4.9 mph 11 mph 93% 0.02 in 0 W/m2
21:02 52.3 °F 50.4 °F 30.1 in NW 8.9 mph 18 mph 93% 0.02 in 0 W/m2
21:07 52.3 °F 50.4 °F 30.1 in West 6 mph 13 mph 93% 0.02 in 0 W/m2
21:12 52.5 °F 50.5 °F 30.1 in South 15 mph 15 mph 93% 0.01 in 0 W/m2
21:17 52.5 °F 50.5 °F 30.1 in West 10.1 mph 23 mph 93% 0.01 in 0 W/m2
21:22 52.5 °F 50.5 °F 30.1 in WNW 6.9 mph 12 mph 93% 0.01 in 0 W/m2
21:27 52.5 °F 50.5 °F 30.2 in West 6 mph 22 mph 93% 0.01 in 0 W/m2
21:32 52.5 °F 50.5 °F 30.2 in WNW 10.1 mph 13 mph 93% 0.02 in 0 W/m2
21:37 52.5 °F 50.9 °F 30.2 in WNW 6 mph 12 mph 94% 0.02 in 0 W/m2
21:42 52.3 °F 50.7 °F 30.2 in West 10.1 mph 23 mph 94% 0.06 in 0 W/m2
21:47 52 °F 50 °F 30.2 in WNW 12.1 mph 20 mph 93% 0.07 in 0 W/m2
21:52 51.4 °F 49.5 °F 30.2 in West 6 mph 12 mph 93% 0.08 in 0 W/m2
21:57 51.3 °F 49.1 °F 30.2 in WNW 8.1 mph 20 mph 92% 0.08 in 0 W/m2
22:02 51.1 °F 48.9 °F 30.2 in West 8.1 mph 13 mph 92% 0.07 in 0 W/m2
22:07 50.9 °F 48.7 °F 30.2 in West 6 mph 12 mph 92% 0.07 in 0 W/m2
22:12 50.7 °F 48.6 °F 30.2 in NW 11 mph 11 mph 92% 0.07 in 0 W/m2
22:17 50.7 °F 48.6 °F 30.2 in WNW 10.1 mph 13 mph 92% 0.07 in 0 W/m2
22:22 50.7 °F 48.6 °F 30.2 in WSW 8.9 mph 12 mph 92% 0.07 in 0 W/m2
22:27 50.7 °F 48.6 °F 30.2 in West 8.1 mph 13 mph 92% 0.07 in 0 W/m2
22:32 50.7 °F 48.6 °F 30.2 in West 8.1 mph 10 mph 92% 0.06 in 0 W/m2
22:37 50.7 °F 48.2 °F 30.2 in West 12.1 mph 15 mph 91% 0.06 in 0 W/m2
22:42 50.7 °F 48.2 °F 30.2 in West 8.9 mph 13 mph 91% 0.01 in 0 W/m2
22:47 50.5 °F 48 °F 30.2 in WNW 4 mph 13 mph 91% 0.01 in 0 W/m2
22:52 50.5 °F 48.4 °F 30.2 in WSW 4 mph 10 mph 92% 0 in 0 W/m2
22:57 50.4 °F 48.2 °F 30.2 in WNW 6 mph 8 mph 92% 0 in 0 W/m2
23:02 50.2 °F 48 °F 30.2 in WSW 8.1 mph 12 mph 92% 0 in 0 W/m2
23:07 50.2 °F 48 °F 30.2 in West 4 mph 8 mph 92% 0 in 0 W/m2
23:12 50.2 °F 48 °F 30.2 in West 6 mph 6 mph 92% 0 in 0 W/m2
23:17 50.2 °F 48.2 °F 30.2 in WSW 4.9 mph 9 mph 93% 0 in 0 W/m2
23:22 50 °F 48 °F 30.2 in WNW 10.1 mph 10 mph 93% 0 in 0 W/m2
23:27 49.6 °F 47.5 °F 30.2 in NNW 2.9 mph 12 mph 92% 0 in 0 W/m2
23:32 48.6 °F 45.5 °F 30.2 in WNW 6 mph 14 mph 89% 0 in 0 W/m2
23:37 47.8 °F 44.8 °F 30.2 in WNW 6.9 mph 10 mph 89% 0 in 0 W/m2
23:42 47.1 °F 44.1 °F 30.2 in West 6.9 mph 12 mph 89% 0 in 0 W/m2
23:47 46.6 °F 43.5 °F 30.2 in WNW 4.9 mph 13 mph 89% 0 in 0 W/m2
23:52 46.2 °F 43.2 °F 30.3 in WNW 4 mph 9 mph 89% 0 in 0 W/m2
23:57 45.9 °F 42.8 °F 30.3 in WSW 8.1 mph 10 mph 89% 0 in 0 W/m2
Juneau County Weather
Compliments of Weather Underground - 4 mb